Location: Mercogliano
(40.9167°N, 14.7333°E)
Time: 15:34:33
(UTC+00:00)

X-37B - Pass Details

Date: 30 November 2020
Orbit: 384 x 390 km, 45.0° (Epoch: 02 January)

Event Time Altitude Azimuth Distance (km) Brightness Sun altitude
Rises 16:46:04 0° 255° (WSW) 2,257 6.5 -13.4°
Reaches altitude 10° 16:48:08 10° 258° (WSW) 1,406 4.9 -13.7°
Maximum altitude 16:51:17 67° 342° (NNW) 423 0.7 -14.3°
Enters shadow 16:52:35 31° 56° (NE) 700 1.3 -14.5°
